STARLINK-11249 [DTC] (60728 NORAD) Tracking and Keplerian Element Data

This shows tracking and keplerian element data for the satellite.

Feedback or suggestion? Click here.




ElementValue
Catalog60728
NameSTARLINK-11249 [DTC]
Epoch Orbit829
Epoch Day286.875957
Epoch Year2024
RAAN124.1034
Inclination53.1602
Eccentricity0.0001185
Argument of Perigee92.9424
Mean Anonmoly267.173
Mean Motion15.69760178
Decay Rate4.862E-05
L11 60728U 24152J 24286.87595700 .00004862 00000+0 44873-4 0 9999
L22 60728 53.1602 124.1034 0001185 92.9424 267.1730 15.69760178 8297



Live tracking and technical data element details for STARLINK-11249 [DTC] (NORAD 60728). STARLINK-11249 [DTC] can be tracked NOW for your location showing map with azimuth and elevation plus other details from your city location.







IsCatalogInMostPopularTable: catalog: 60728, numindb: 7
Update: records affected: 1



GetName: 60728 STARLINK-11249 [DTC]

Hit Count: updated at: Fri, 06 Dec 2024 11:24:19 GMT